• Join FlightAware (Why Join?)
  • Login
  • US Flag 
07:25AM EST


 

Airport Tracker/Info


-or-


 

Live Flight TrackerFlight Track Log ✈ AMF1324 ✈ 27-Mar-2014 ✈ KBUF - KBGM

Flight Track Log - Related Links

Times and Time Zones

All times are in EDT time to prevent confusion due to time zone crossing. See the AMF1324 flight status page for this flight to view local times or setup timezone preferences in your user account.

Time Position Orientation Groundspeed Altitude Reporting Facility
EDT Latitude Longitude Course Direction KTS MPH feet Rate Location/Type
06:33AM 42.9333 -78.7500 180° South 120 138 2,100  Level Buffalo TRACON
06:33AM 42.9167 -78.7500 180° South 141 162 2,900 1,877 Climbing Buffalo TRACON
06:36AM 42.8986 -78.5839 98° East 200 230 7,700 1,829 Climbing Cleveland Center
06:37AM 42.8922 -78.5006 96° East 208 239 9,300 1,230 Climbing Cleveland Center
06:38AM 42.8847 -78.4306 98° East 221 254 10,200 1,180 Climbing Cleveland Center
06:39AM 42.8703 -78.3261 101° East 233 268 11,700 1,328 Climbing Cleveland Center
06:40AM 42.8592 -78.2381 100° East 237 273 12,900 639 Climbing Cleveland Center
06:41AM 42.8492 -78.1417 98° East 261 300 13,000 49 Climbing Cleveland Center
06:42AM 42.8397 -78.0353 97° East 280 322 13,000  Level Cleveland Center
06:43AM 42.8325 -77.9286 95° East 280 322 13,000  Level Cleveland Center
06:44AM 42.8239 -77.8183 96° East 291 335 13,000 49 Level Cleveland Center
06:45AM 42.8186 -77.7094 94° East 290 334 13,100 49 Climbing Cleveland Center
06:46AM 42.7797 -77.6119 118° Southeast 291 335 13,100  Level Cleveland Center
06:47AM 42.7431 -77.5108 116° Southeast 292 336 13,100  Level Cleveland Center
06:48AM 42.7058 -77.4103 117° Southeast 293 337 13,100  Level Cleveland Center
06:49AM 42.6647 -77.3131 120° Southeast 294 338 13,100  Level Cleveland Center
06:50AM 42.6244 -77.2156 119° Southeast 294 338 13,100  Level Cleveland Center
06:51AM 42.5814 -77.1183 121° Southeast 298 343 13,100  Level Cleveland Center
06:52AM 42.5378 -77.0211 121° Southeast 298 343 13,100  Level Cleveland Center
06:53AM 42.4858 -76.9053 121° Southeast 299 344 13,100 -344 Level Cleveland Center
06:54AM 42.4428 -76.8061 120° Southeast 301 346 12,400 -1,160 Descending Cleveland Center
06:55AM 42.3978 -76.7006 120° Southeast 314 361 10,800 -1,424 Descending New York Center
06:56AM 42.3658 -76.5883 111° Southeast 320 368 9,600 -1,450 Descending New York Center
06:57AM 42.3400 -76.4794 108° East 314 361 7,900 -1,594 Descending New York Center
06:58AM 42.3142 -76.3656 107° East 290 334 6,200 -1,477 Descending Cleveland Center
06:59AM 42.2944 -76.2678 105° East 278 320 4,700 -1,446 Descending Cleveland Center
07:00AM 42.2747 -76.1850 108° East 277 319 3,500 -818 Descending New York Center
07:01AM 42.2575 -76.1025 106° East 249 287 3,200 -250 Descending New York Center
07:02AM 42.2461 -76.0342 103° East 215 247 3,000 -200 Descending New York Center
07:03AM 42.2347 -75.9606 102° East 207 238 2,800 -200 Descending New York Center